Location: Valley View Observatory
(41.0081°N, 76.5874°W)
Time: 08:41:18
(UTC-05:00)

Daily predictions for brighter satellites

Satellite Brightness Start Highest point End
(mag) Time Altitude Azimuth Time Altitude Azimuth Time Altitude Azimuth
Cosmos 2154 Rocket 4.1 17:30:01 10° N 17:36:21 89° W 17:42:42 10° S
Cosmos 1809 Rocket 4.4 17:30:42 10° N 17:36:49 77° E 17:42:53 10° SSE
SKYMED 2 4.4 17:33:12 10° NE 17:37:03 30° E 17:40:53 10° SSE
SMAP 3.1 17:33:42 10° SSE 17:38:21 89° E 17:43:02 10° NNW
Cosmos 1315 Rocket 4.1 17:36:08 10° SE 17:39:03 20° E 17:41:57 10° NE
NOSS 3-3 (A) 4.1 17:33:20 10° SW 17:39:22 85° NW 17:46:02 10° NE
NOSS 3-3 (C) 4.1 17:33:26 10° SW 17:39:28 86° NW 17:46:08 10° NE
FENGYUN 3A 4.3 17:35:54 10° SE 17:40:37 33° ENE 17:45:22 10° N
SeaSat 1 3.6 17:36:22 10° S 17:41:09 51° WSW 17:45:58 10° NW
OAO 3 Rocket 4.2 17:39:31 10° WSW 17:43:50 38° S 17:48:12 10° ESE
Cosmos 1908 3.6 17:40:20 10° NNW 17:44:12 70° W 17:48:01 10° S
Meteor 1-28 Rocket 3.4 17:41:00 10° N 17:44:49 79° WNW 17:48:36 10° SSW
Cosmos 2181 Rocket 4.1 17:38:32 10° S 17:44:51 62° E 17:51:12 10° NNE
YAOGAN 1 2.7 17:41:10 10° SSE 17:45:21 51° ENE 17:49:34 10° N
USA 161 4.0 17:44:39 10° NW 17:45:42 12° WNW 17:46:43 10° W
Meteor 2-21 Rocket 4.4 17:40:13 10° N 17:46:18 69° E 17:52:20 10° SSE
CSL-04 Debris 4.4 17:40:59 10° SSE 17:46:25 80° WSW 17:51:55 10° NNW
IRS-1A Rocket 4.2 17:46:30 10° SSE 17:51:58 68° ENE 17:57:33 10° N
Meteor 1-21 Rocket 4.3 17:47:22 10° S 17:53:14 81° E 17:59:11 10° NNE
KORONAS-FOTON 4.1 17:50:49 10° SSW 17:54:36 69° W 17:58:23 10° N
Cosmos 44 Rocket 4.5 17:52:05 10° SSE 17:55:42 23° ESE 17:58:45 13° ENE
H-2A R/B 4.2 17:55:58 10° ESE 17:58:34 18° ENE 18:01:11 10° NNE
Cosmos 1726 2.1 17:55:17 10° N 17:58:57 86° W 18:02:36 10° S
METEOR-M 4.1 17:53:38 10° SSE 17:58:57 77° ENE 18:04:19 10° N
Tiangong 1 0.7 17:58:13 10° WNW 18:00:40 52° N 18:02:12 19° ENE
SL-8 Rocket 3.9 17:59:42 10° N 18:05:53 70° E 18:12:04 10° SSE
Cosmos 1943 3.7 18:00:28 10° SW 18:06:02 61° WNW 18:11:37 10° NNE
CZ-4 R/B 4.4 18:02:44 10° SSE 18:06:51 86° ENE 18:11:00 10° NNW
Cosmos 2221 2.7 18:02:46 10° N 18:07:09 77° W 18:11:31 10° S
Cosmos 1328 4.2 18:04:22 10° SSE 18:08:09 42° E 18:11:59 10° NNE
Cosmos 2218 Rocket 4.0 18:02:42 10° N 18:08:50 61° E 18:14:53 10° SSE
Cosmos 1400 Rocket 3.0 18:05:17 10° SSW 18:09:18 78° W 18:13:25 10° N
Ariane Rocket 4.0 18:04:32 10° S 18:09:27 51° W 18:14:24 10° NNW
Meteor 2-2 Rocket 4.5 18:04:21 10° N 18:09:53 46° ENE 18:15:17 10° SSE
MOS 1 4.2 18:07:03 10° SSE 18:12:38 68° ENE 18:18:15 10° N
Meteor 2-10 4.1 18:09:21 10° NNW 18:14:23 79° W 18:19:30 10° S
Cosmos 1959 Rocket 4.5 18:09:27 10° N 18:15:47 69° E 18:22:06 10° SSE
SPOT 3 Rocket 3.5 18:13:56 10° SSE 18:18:58 59° ENE 18:24:03 10° N
Cosmos 1408 Rocket 3.7 18:15:22 10° SSE 18:19:29 47° E 18:23:37 10° NNE
ALOS 2.2 18:18:28 10° SSE 18:23:07 83° ENE 18:27:49 10° N
EO 1 Del DPAF 3.2 18:20:47 10° NNE 18:24:36 63° ESE 18:28:23 10° S
MONITOR-E 4.1 18:22:04 10° S 18:25:06 83° WSW 18:28:10 10° NNW
COSMO-SKYMED 1 2.7 18:20:52 10° N 18:25:13 77° WNW 18:29:33 10° SSW
SL-08 R/B 4.4 18:20:34 10° N 18:26:46 69° E 18:32:51 10° SSE
Cosmos 2058 3.9 18:23:31 10° SE 18:26:59 26° E 18:27:12 26° E
Cosmos 2228 Rocket 3.8 18:27:12 10° NNE 18:31:17 31° ENE 18:35:21 10° SE
Cosmos 1777 Rocket 4.1 18:27:54 10° N 18:33:03 54° ENE 18:38:11 10° SE
Cosmos 2151 3.7 18:31:10 10° SSE 18:34:52 30° E 18:34:53 30° E
Landsat 4 4.0 18:31:50 10° N 18:35:33 65° WNW 18:39:13 10° SSW
BREEZE-M R/B 4.0 18:34:32 10° WNW 18:36:16 20° NNW 18:36:24 20° NNW
Cosmos 1703 3.6 18:32:52 10° SSE 18:36:36 41° E 18:37:44 32° NE
Meteor 2-8 Rocket 4.5 18:33:14 10° S 18:39:22 85° W 18:45:34 10° N
Cosmos 1626 2.0 18:39:58 10° S 18:43:41 84° E 18:46:23 18° N
GEOS 3 Rocket 3.9 18:42:15 25° ESE 18:45:07 49° NE 18:50:17 10° NNW
Cosmos 1743 Rocket 3.8 18:41:25 10° SSE 18:45:35 44° E 18:46:27 38° ENE
Cosmos 2369 Rocket 4.3 18:40:54 10° NW 18:45:41 28° WSW 18:50:26 10° SSW
Cosmos 2366 rocket 4.2 18:41:05 10° N 18:47:20 75° W 18:53:28 10° S
CZ-4 R/B 4.3 18:45:46 10° SW 18:48:57 21° W 18:52:11 10° NW
Cosmos 1300 4.5 18:47:40 10° NNW 18:51:09 33° W 18:54:35 10° SSW
Iridium 96 4.5 18:51:35 60° ENE 18:51:47 61° E 18:55:42 10° SSE
Cosmos 1328 Rocket 3.4 18:48:19 10° N 18:52:41 69° E 18:57:00 10° SSE
Cosmos 1821 Rocket 4.3 18:48:04 10° N 18:53:52 41° ENE 18:59:42 10° SSE
Cosmos 1656 Rocket 3.6 18:50:29 10° NNW 18:55:58 86° WSW 19:01:31 10° SSE
Cosmos 2098 Rocket 3.6 18:51:30 10° N 18:56:38 76° E 19:03:04 10° S
BREEZE-M DEB (TANK) 2.8 18:53:52 10° W 18:57:42 37° NNW 18:57:55 36° NNW
ERS-2 2.7 18:56:53 10° S 19:00:29 57° WSW 19:04:09 10° NNW
Cosmos 1943 Rocket 4.0 18:55:54 10° NW 19:00:48 32° WSW 19:05:37 10° SSW
Cosmos 371 Rocket 3.8 18:59:21 10° S 19:03:06 41° SE 19:03:06 41° SE
Nadezhda 3 Rocket 3.9 18:57:46 10° S 19:04:02 71° E 19:10:23 10° NNE
Cosmos 44 3.6 19:07:05 10° SW 19:11:18 55° NW 19:12:38 38° N
Meteor 1-27 4.4 19:11:27 10° NNW 19:17:09 73° W 19:22:53 10° S
Cosmos 1346 Rocket 3.6 19:15:18 10° NNW 19:19:05 48° W 19:22:49 10° S
NOSS 3-4 (A) 4.0 19:16:48 10° NW 19:23:53 75° WSW 19:31:28 10° SSE
NOSS 3-4 (C) 4.0 19:16:54 10° NW 19:23:59 76° WSW 19:31:35 10° SSE
SL-24 R/B - RUBIN 2 4.4 19:20:12 10° NW 19:24:30 47° WSW 19:26:15 29° S
OAO 3 Rocket 4.1 19:22:35 10° WSW 19:26:54 36° S 19:27:01 36° S
COSMOS 2406 3.2 19:26:53 10° SSW 19:32:37 81° WNW 19:33:47 58° N
Cosmos 1934 Rocket 4.3 19:29:18 10° N 19:34:05 50° NNE 19:34:05 50° NNE
Cosmos 44 Rocket 4.2 19:32:29 10° WSW 19:36:56 42° NW 19:37:31 40° NNW
Thor Agena Rocket 3.8 19:39:09 55° NNW 19:40:11 70° WNW 19:45:22 10° SSW
Cosmos 909 Rocket 4.0 19:47:14 10° NNW 19:54:01 80° WSW 19:54:14 78° SSW
